DW2485 Weather Reports


time (UTC)temp
C
wind
direction
speed
KPH
gust
KPH
rain 1hr
cm
rain 24hr
cm
rain mn
cm
humidity
%
barometer
mb
20260902224505 31 247 3.2 4.8 0.00 0.00 0.00 69 1013.5
20260902224005 31 245 3.2 4.8 0.00 0.00 0.00 69 1013.4
20260902222505 31 202 6.4 11.3 0.00 0.00 0.00 67 1013.0
20260902222006 32 180 6.4 12.9 0.00 0.00 0.00 66 1013.0
20260902221005 32 200 3.2 4.8 0.00 0.00 0.00 65 1013.4
20260902215505 32 223 3.2 4.8 0.00 0.00 0.00 63 1013.5
20260902215005 32 232 3.2 4.8 0.00 0.00 0.00 60 1013.5
20260902211505 34 288 4.8 11.3 0.00 0.00 0.00 55 1013.7
20260902210005 35 292 6.4 12.9 0.00 0.00 0.00 52 1013.7
20260902205005 36 301 6.4 11.3 0.00 0.00 0.00 52 1013.9
20260902204504 35 311 8.0 12.9 0.00 0.00 0.00 52 1013.9
20260902203006 34 276 6.4 12.9 0.00 0.00 0.00 54 1013.9
20260902202005 34 236 9.7 14.5 0.00 0.00 0.00 53 1014.0
20260902200505 35 208 8.0 11.3 0.00 0.00 0.00 55 1013.9
20260902200005 35 192 6.4 12.9 0.00 0.00 0.00 54 1013.8
20260902194504 35 229 9.7 16.1 0.00 0.00 0.00 53 1014.2
20260902193005 35 242 9.7 20.9 0.00 0.00 0.00 56 1014.2
20260902192504 35 242 9.7 12.9 0.00 0.00 0.00 57 1014.3
20260902192005 35 213 8.0 19.3 0.00 0.00 0.00 55 1014.2
20260902191005 34 244 12.9 19.3 0.00 0.00 0.00 53 1014.3
20260902190005 34 212 12.9 20.9 0.00 0.00 0.00 56 1014.3
20260902185505 34 218 8.0 12.9 0.00 0.00 0.00 56 1014.2
20260902185004 33 208 12.9 20.9 0.00 0.00 0.00 53 1014.4
20260902184004 35 223 8.0 16.1 0.00 0.00 0.00 58 1014.4
20260902183505 34 253 11.3 19.3 0.00 0.00 0.00 54 1014.4
20260902181005 33 233 8.0 12.9 0.00 0.00 0.00 56 1014.6
20260902180505 33 251 11.3 19.3 0.00 0.00 0.00 57 1014.6
20260902173505 33 207 9.7 16.1 0.00 0.00 0.00 60 1014.9
20260902170505 32 205 6.4 16.1 0.00 0.00 0.00 64 1015.2
20260902170005 32 199 11.3 19.3 0.00 0.00 0.00 64 1015.1
20260902165005 31 213 9.7 19.3 0.00 0.00 0.00 67 1015.1
20260902164504 31 181 11.3 16.1 0.00 0.00 0.00 65 1015.3
20260902164005 31 195 8.0 11.3 0.00 0.00 0.00 66 1015.5
20260902163004 31 202 8.0 11.3 0.00 0.00 0.00 65 1015.4
20260902162505 31 227 4.8 11.3 0.00 0.00 0.00 67 1015.4
20260902162006 31 219 8.0 14.5 0.00 0.00 0.00 66 1015.3
20260902161005 30 202 9.7 16.1 0.00 0.00 0.00 69 1015.3
20260902155504 30 174 11.3 14.5 0.00 0.00 0.00 70 1015.2
20260902154504 30 213 4.8 11.3 0.00 0.00 0.00 71 1015.1
20260902154005 30 218 4.8 11.3 0.00 0.00 0.00 71 1015.0
20260902153004 30 243 6.4 11.3 0.00 0.00 0.00 72 1015.0
20260902152505 29 231 6.4 8.0 0.00 0.00 0.00 71 1015.0
20260902152005 29 224 3.2 4.8 0.00 0.00 0.00 73 1015.0
20260902150004 28 227 3.2 4.8 0.00 0.00 0.00 75 1015.0
20260902145504 27 187 3.2 8.0 0.00 0.00 0.00 76 1015.0
20260902144504 27 190 8.0 12.9 0.00 0.00 0.00 77 1015.0
20260902143504 27 181 8.0 11.3 0.00 0.00 0.00 77 1014.9
20260902143004 27 182 6.4 9.7 0.00 0.00 0.00 77 1014.9
20260902142504 27 181 4.8 9.7 0.00 0.00 0.00 78 1015.0
20260902142005 27 186 8.0 9.7 0.00 0.00 0.00 76 1015.0
20260902141504 27 184 4.8 9.7 0.00 0.00 0.00 77 1015.0
20260902141004 27 181 8.0 12.9 0.00 0.00 0.00 76 1015.1
20260902140504 26 194 4.8 8.0 0.00 0.00 0.00 78 1015.1
20260902140005 26 189 8.0 11.3 0.00 0.00 0.00 77 1015.1
20260902135504 26 168 8.0 12.9 0.00 0.00 0.00 77 1015.1
20260902135004 26 182 8.0 11.3 0.00 0.00 0.00 77 1015.1
20260902134504 26 189 4.8 8.0 0.00 0.00 0.00 79 1015.1
20260902134005 26 152 4.8 8.0 0.00 0.00 0.00 79 1015.1
20260902133004 25 154 4.8 8.0 0.00 0.00 0.00 81 1015.3
20260902132504 25 158 3.2 4.8 0.00 0.00 0.00 82 1015.5
20260902131504 24 194 1.6 4.8 0.00 0.00 0.00 84 1015.5
20260902131004 24 185 3.2 4.8 0.00 0.00 0.00 83 1015.5
20260902125005 24 152 4.8 4.8 0.00 0.00 0.00 83 1015.8
20260902124505 23 148 1.6 3.2 0.00 0.00 0.00 84 1015.9
20260902122004 22 218 3.2 4.8 0.00 0.00 0.00 89 1015.9
20260902121505 21 351 0.0 3.2 0.00 0.00 0.00 90 1015.7
20260902121005 21 351 0.0 3.2 0.00 0.00 0.00 89 1015.7
20260902115504 22 192 0.0 3.2 0.00 0.00 0.00 87 1015.9
20260902115004 22 192 1.6 4.8 0.00 0.00 0.00 87 1015.8
20260902114004 22 270 3.2 8.0 0.00 0.00 0.00 87 1016.0
20260902111004 21 150 4.8 4.8 0.00 0.00 0.00 88 1014.8
20260902110504 21 146 3.2 4.8 0.00 0.00 0.00 88 1014.8
20260902110007 21 163 4.8 4.8 0.00 0.00 0.00 88 1014.8
20260902105004 21 163 3.2 3.2 0.00 0.00 0.00 87 1014.8
20260902104004 21 163 3.2 4.8 0.00 0.00 0.00 87 1014.9
20260902103505 21 163 3.2 3.2 0.00 0.00 0.00 87 1014.9
20260902102504 21 163 3.2 4.8 0.00 0.00 0.00 87 1014.9
20260902101005 21 157 3.2 3.2 0.00 0.00 0.00 87 1014.9
20260902100504 21 154 1.6 4.8 0.00 0.00 0.00 87 1014.9
20260902100004 21 147 4.8 4.8 0.00 0.00 0.00 87 1014.8
20260902095504 21 151 3.2 4.8 0.00 0.00 0.00 87 1014.8
20260902092504 21 152 3.2 4.8 0.00 0.00 0.00 86 1015.1
20260902090504 22 162 3.2 3.2 0.00 0.00 0.00 85 1015.4
20260902085004 22 182 3.2 4.8 0.00 0.00 0.00 85 1015.4
20260902084504 22 184 1.6 3.2 0.00 0.00 0.00 85 1015.3
20260902083504 22 172 3.2 4.8 0.00 0.00 0.00 86 1015.1
20260902082504 22 181 1.6 3.2 0.00 0.00 0.00 85 1015.1
20260902082004 22 181 1.6 3.2 0.00 0.00 0.00 85 1015.1
20260902081504 22 181 1.6 3.2 0.00 0.00 0.00 85 1015.0
20260902081004 22 181 1.6 3.2 0.00 0.00 0.00 85 1014.9
20260902080004 22 181 3.2 4.8 0.00 0.00 0.00 85 1014.9
20260902075504 22 181 3.2 4.8 0.00 0.00 0.00 85 1014.8
20260902075004 22 208 1.6 4.8 0.00 0.00 0.00 84 1014.8
20260902074504 22 209 1.6 3.2 0.00 0.00 0.00 84 1014.9
20260902074004 22 198 1.6 3.2 0.00 0.00 0.00 85 1014.8
20260902073004 22 153 1.6 1.6 0.00 0.00 0.00 86 1014.7
20260902072504 22 153 1.6 3.2 0.00 0.00 0.00 86 1014.6
20260902072004 22 153 3.2 4.8 0.00 0.00 0.00 86 1014.4
20260902070504 22 169 1.6 4.8 0.00 0.00 0.00 85 1014.7
20260902070006 22 167 3.2 4.8 0.00 0.00 0.00 85 1014.7
20260902064504 22 190 1.6 4.8 0.00 0.00 0.00 85 1014.6
20260902062504 23 186 3.2 4.8 0.00 0.00 0.00 84 1014.8
20260902061004 23 188 3.2 8.0 0.00 0.00 0.00 84 1014.7
20260902060004 23 208 3.2 8.0 0.00 0.00 0.00 83 1014.8
20260902055503 23 217 4.8 8.0 0.00 0.00 0.00 83 1014.8
20260902054504 23 212 4.8 8.0 0.00 0.00 0.00 84 1014.7
20260902054004 23 186 6.4 12.9 0.00 0.00 0.00 84 1014.7
20260902053503 23 175 8.0 12.9 0.00 0.00 0.00 85 1014.7
20260902053003 23 182 8.0 11.3 0.00 0.00 0.00 85 1014.8
20260902052504 23 169 8.0 12.9 0.00 0.00 0.00 86 1014.8
20260902051503 23 166 4.8 9.7 0.00 0.00 0.00 87 1014.9
20260902051004 23 164 4.8 8.0 0.00 0.00 0.00 88 1014.9
20260902050504 23 163 3.2 4.8 0.00 0.00 0.00 87 1014.9
20260902050005 23 166 3.2 4.8 0.00 0.00 0.00 87 1015.0
20260902045503 23 179 3.2 4.8 0.00 0.00 0.00 87 1015.1
20260902045004 23 175 3.2 8.0 0.00 0.00 0.00 87 1015.0
20260902044504 23 184 3.2 4.8 0.00 0.00 0.00 88 1015.1
20260902043503 23 159 3.2 4.8 0.00 0.00 0.00 89 1015.0
20260902043005 23 177 1.6 4.8 0.00 0.00 0.00 88 1014.9
20260902042505 23 175 1.6 3.2 0.00 0.00 0.00 88 1014.8
20260902042005 23 175 1.6 3.2 0.00 0.00 0.00 88 1014.9
20260902041506 23 175 1.6 3.2 0.00 0.00 0.00 89 1014.9
20260902040506 23 166 1.6 4.8 0.00 0.00 0.00 88 1015.0
20260902035505 24 187 1.6 3.2 0.00 0.00 0.00 87 1015.0
20260902034006 24 187 1.6 3.2 0.00 0.00 0.00 86 1015.0
20260902033506 24 187 3.2 3.2 0.00 0.00 0.00 86 1015.0
20260902033006 25 187 3.2 4.8 0.00 0.00 0.00 86 1015.0
20260902032505 25 183 3.2 4.8 0.00 0.00 0.00 86 1014.9
20260902032005 25 187 3.2 4.8 0.00 0.00 0.00 86 1014.9
20260902031505 25 194 1.6 3.2 0.00 0.00 0.00 86 1014.8
20260902031006 25 165 1.6 3.2 0.00 0.00 0.00 86 1014.8
20260902030505 25 165 1.6 3.2 0.00 0.00 0.00 86 1014.7
20260902030005 25 164 3.2 4.8 0.00 0.00 0.00 87 1014.6
20260902025506 25 165 3.2 4.8 0.00 0.00 0.00 87 1014.6
20260902025006 25 170 1.6 4.8 0.00 0.00 0.00 87 1014.6
20260902024505 25 154 3.2 4.8 0.00 0.00 0.00 86 1014.6
20260902022006 25 182 3.2 8.0 0.00 0.00 0.00 84 1014.5
20260902020505 26 178 4.8 8.0 0.00 0.00 0.00 83 1014.5
20260902020006 26 178 4.8 8.0 0.00 0.00 0.00 83 1014.4
20260902015006 26 164 4.8 8.0 0.00 0.00 0.00 83 1014.4
20260902014505 26 161 4.8 8.0 0.00 0.00 0.00 83 1014.3
20260902012006 27 155 4.8 9.7 0.00 0.00 0.00 81 1014.2
20260902011005 27 142 4.8 4.8 0.00 0.00 0.00 81 1014.0
20260902005505 27 158 3.2 4.8 0.00 0.00 0.00 78 1014.0
20260902005006 28 158 3.2 8.0 0.00 0.00 0.00 78 1014.0
20260902004006 28 165 3.2 4.8 0.00 0.00 0.00 76 1014.0
20260902002005 29 183 3.2 4.8 0.00 0.00 0.00 72 1013.9
20260902000005 30 178 4.8 11.3 0.00 0.00 0.00 68 1014.1
20260901235505 30 184 4.8 11.3 0.00 0.00 0.00 68 1014.1
20260901235005 31 192 6.4 12.9 0.00 0.00 0.00 68 1014.2
20260901234505 31 195 9.7 16.1 0.00 0.00 0.00 68 1014.0
20260901234005 31 185 6.4 14.5 0.00 0.00 0.00 68 1014.0
20260901232005 32 182 8.0 12.9 0.00 0.00 0.00 66 1014.2
20260901230005 32 188 4.8 11.3 0.00 0.00 0.00 64 1014.0
20260901225505 32 189 8.0 16.1 0.00 0.00 0.00 63 1014.0
20260901225005 32 190 8.0 12.9 0.00 0.00 0.00 63 1014.0